Flag for Switzerland Weather past 2 weeks in Kloten, Zurich, Switzerland

Now
61 °F

Partly sunny.


Feels Like: 61 °F
Forecast: 47 / 70 °F
Wind: 5 mph from South

Location: Zurich-Kloten

Current Time: Jul 29, 2015 at 2:18:42 PM

Latest Report: Jul 29, 2015 at 1:50 PM


Visibility: N/A

Pressure: 29.89 "Hg

Humidity: 88%

Dew point: 57 °F

Location of KlotenLocation

Historic Weather in Kloten — Graph

°F

Kloten temperature yesterday

Maximum temperature yesterday: 73 °F (at 5:50 PM)
Minimum temperature yesterday: 63 °F (at 2:50 AM)
Average temperature yesterday: 66 °F

Past Weeks' High & Low Weather Summary

 TemperatureHumidityPressure
High95 °F (Jul 22, 3:20 PM)100% (Jul 16, 5:20 AM)30.21 "Hg (Jul 16, 5:20 AM)
Low52 °F (Jul 26, 6:20 AM)19% (Jul 16, 4:50 PM)29.74 "Hg (Jul 24, 5:20 PM)
Average72 °F64%30.00 "Hg
* Reported Jul 14 1:20 PM — Jul 29 1:20 PM, Kloten, Weather by CustomWeather, © 2015

Note: Actual official high and low records may vary slightly from our data, if they occured in-between our weather recording intervals... More about our weather records

Advertising

Kloten weather history for previous 24 hours

 ConditionsComfort  
Time TempWeatherWind HumidityBarometerVisibility
1:20 PM
Wed, Jul 29
61 °FPartly sunny.6 mph83%29.89 "HgN/A
12:50 PM59 °FPartly sunny.6 mph94%29.89 "HgN/A
12:20 PM59 °FPartly sunny.6 mph94%29.89 "HgN/A
11:50 AM59 °FPartly sunny.7 mph94%29.89 "HgN/A
11:20 AM59 °FRain. Partly sunny.7 mph94%29.86 "Hg4 mi
10:50 AM61 °FLight rain. Partly sunny.3 mph83%29.89 "HgN/A
10:20 AM61 °FLight rain. Partly sunny.5 mph83%29.89 "HgN/A
9:20 AM61 °FPartly sunny.1 mph83%29.86 "HgN/A
8:50 AM61 °FPartly sunny.2 mph77%29.86 "HgN/A
8:20 AM61 °FPartly sunny.2 mph77%29.89 "HgN/A
7:50 AM59 °FPartly sunny.5 mph82%29.89 "HgN/A
7:20 AM59 °FBroken clouds.5 mph82%29.89 "HgN/A
6:50 AM59 °FPassing clouds.2 mph77%29.92 "HgN/A
6:20 AM57 °FPassing clouds.2 mph82%29.92 "HgN/A
5:50 AM57 °FPassing clouds.5 mph82%29.92 "HgN/A
4:50 AM57 °FPassing clouds.3 mph82%29.95 "HgN/A
4:20 AM57 °FPassing clouds.1 mph82%29.95 "HgN/A
3:50 AM57 °FPassing clouds.1 mph77%29.95 "HgN/A
3:20 AM57 °FPartly cloudy.3 mph72%29.95 "HgN/A
2:50 AM57 °FPartly cloudy.5 mph77%29.95 "HgN/A
1:50 AM59 °FPassing clouds.3 mph77%29.95 "HgN/A
1:20 AM59 °FPassing clouds.5 mph72%29.95 "HgN/A
12:50 AM59 °FPassing clouds.6 mph68%29.95 "HgN/A
11:20 PM
Tue, Jul 28
63 °FLight rain. Passing clouds.3 mph68%29.95 "HgN/A
10:50 PM63 °FLight rain. Passing clouds.6 mph59%29.95 "HgN/A
10:20 PM63 °FLight rain. Passing clouds.5 mph64%29.92 "HgN/A
9:50 PM64 °FLight rain. Partly sunny.8 mph56%29.92 "HgN/A
9:20 PM66 °FPartly sunny.12 mph49%29.89 "HgN/A
8:50 PM66 °FPartly sunny.10 mph49%29.89 "HgN/A
8:20 PM68 °FPartly sunny.12 mph46%29.89 "HgN/A
7:50 PM68 °FPartly sunny.13 mph46%29.86 "HgN/A
7:20 PM70 °FPartly sunny.10 mph43%29.86 "HgN/A
6:50 PM72 °FBroken clouds.12 mph44%29.86 "HgN/A
6:20 PM72 °FPartly sunny.9 mph44%29.86 "HgN/A
5:50 PM73 °FBroken clouds.9 mph41%29.86 "HgN/A
5:20 PM72 °FBroken clouds.10 mph44%29.86 "HgN/A
4:50 PM72 °FScattered clouds.9 mph44%29.86 "HgN/A
4:20 PM72 °FScattered clouds.10 mph44%29.86 "HgN/A
3:50 PM72 °FBroken clouds.8 mph47%29.86 "HgN/A
3:20 PM70 °FBroken clouds.8 mph46%29.89 "HgN/A
2:50 PM70 °FScattered clouds.9 mph46%29.89 "HgN/A
2:20 PM68 °FPartly sunny.12 mph49%29.89 "HgN/A
Weather by CustomWeather, © 2015

See weather overviewHow to use our weather pages